Home > Weather > Košice > Past weeks

Flag for Slovakia Past Weather in Košice, Slovakia — Yesterday and Last 2 Weeks

Now
66 °F

Clear.


Feels Like: 66 °F
Forecast: 63 / 87 °F
Wind: 6 mph from Northeast

Location: Kosice - Barca

Current Time: Jul 24, 2016 at 3:12:08 AM

Latest Report: Jul 24, 2016 at 3:00 AM


Visibility: 10 mi

Pressure: 30.07 "Hg

Humidity: 78%

Dew Point: 59 °F

Location of KošiceLocation

Past Weather in Košice — Graph

°F

Košice Temperature Yesterday

Maximum temperature yesterday: 84 °F (at 3:30 PM)
Minimum temperature yesterday: 63 °F (at 2:30 AM)
Average temperature yesterday: 73 °F

High & Low Weather Summary for the Past Weeks

 TemperatureHumidityPressure
High90 °F (Jul 12, 3:00 PM)100% (Jul 9, 1:00 PM)30.09 "Hg (Jul 9, 1:00 PM)
Low54 °F (Jul 15, 5:30 AM)33% (Jul 12, 4:00 PM)29.68 "Hg (Jul 14, 6:30 AM)
Average69 °F68%29.98 "Hg
* Reported Jul 9 2:00 AM — Jul 24 2:00 AM, Košice, Weather by CustomWeather, © 2016

Note: Actual official high and low records may vary slightly from our data, if they occured in-between our weather recording intervals... More about our weather records

Advertising

Košice Weather History for the Previous 24 Hours

Scroll right to see more
 ConditionsComfort  
Time TempWeatherWind HumidityBarometerVisibility
2:00 AM
Sun, Jul 24
70 °FClear.6 mph69%30.07 "Hg10 mi
1:30 AM68 °FClear.8 mph73%30.07 "Hg10 mi
1:00 AM66 °FClear.6 mph78%30.07 "Hg10 mi
12:30 AM70 °FClear.5 mph69%30.07 "Hg10 mi
12:00 AM68 °FClear.6 mph73%30.07 "Hg10 mi
11:30 PM
Sat, Jul 23
70 °FClear.7 mph69%30.07 "Hg10 mi
11:00 PM72 °FClear.10 mph65%30.07 "Hg10 mi
10:30 PM72 °FClear.6 mph65%30.07 "Hg10 mi
10:00 PM72 °FClear.6 mph65%30.04 "Hg10 mi
9:30 PM73 °FClear.5 mph61%30.04 "Hg10 mi
9:00 PM73 °FSunny.7 mph61%30.04 "Hg10 mi
8:30 PM75 °FSunny.6 mph54%30.04 "Hg10 mi
8:00 PM77 °FSunny.7 mph54%30.04 "Hg10 mi
7:30 PM77 °FSunny.7 mph54%30.04 "Hg10 mi
7:00 PM81 °FSunny.5 mph45%30.01 "Hg10 mi
6:30 PM82 °FSunny.1 mph42%30.01 "Hg10 mi
6:00 PM84 °FPassing clouds.3 mph40%30.01 "HgN/A
5:30 PM84 °FPassing clouds.5 mph40%30.01 "HgN/A
5:00 PM82 °FPassing clouds.3 mph40%30.01 "HgN/A
4:30 PM84 °FPassing clouds.3 mph40%30.04 "HgN/A
4:00 PM84 °FPassing clouds.5 mph43%30.04 "HgN/A
3:30 PM84 °FPassing clouds.3 mph37%30.04 "HgN/A
3:00 PM82 °FSunny.3 mph42%30.04 "Hg10 mi
2:30 PM82 °FPassing clouds.3 mph40%30.04 "HgN/A
2:00 PM82 °FSunny.1 mph45%30.04 "Hg10 mi
1:30 PM82 °FPassing clouds.3 mph42%30.04 "HgN/A
1:00 PM81 °FPassing clouds.5 mph45%30.04 "HgN/A
12:30 PM81 °FPassing clouds.3 mph42%30.04 "HgN/A
12:00 PM81 °FSunny.5 mph45%30.04 "Hg10 mi
11:30 AM79 °FSunny.2 mph45%30.04 "Hg10 mi
11:00 AM77 °FSunny.5 mph47%30.04 "Hg10 mi
10:30 AM77 °FPassing clouds.5 mph51%30.04 "HgN/A
10:00 AM75 °FSunny.7 mph50%30.04 "Hg10 mi
9:30 AM75 °FSunny.8 mph54%30.04 "Hg10 mi
9:00 AM73 °FSunny.7 mph61%30.04 "Hg10 mi
8:30 AM70 °FScattered clouds.3 mph69%30.04 "HgN/A
8:00 AM68 °FPassing clouds.6 mph73%30.04 "HgN/A
7:30 AM66 °FScattered clouds.6 mph78%30.04 "HgN/A
7:00 AM64 °FScattered clouds.5 mph83%30.04 "HgN/A
6:30 AM64 °FScattered clouds.2 mph78%30.04 "HgN/A
6:00 AM63 °FScattered clouds.2 mph83%30.04 "HgN/A
5:30 AM63 °FPassing clouds.2 mph83%30.04 "HgN/A
5:00 AM64 °FPassing clouds.2 mph73%30.04 "HgN/A
4:30 AM63 °FClear.5 mph83%30.01 "Hg10 mi
4:00 AM63 °FPassing clouds.3 mph83%30.01 "HgN/A
3:30 AM64 °FClear.3 mph73%30.01 "Hg10 mi
3:00 AM64 °FClear.6 mph78%30.01 "Hg10 mi
Weather by CustomWeather, © 2016

See weather overviewHow to use our weather pages